Time,TemperatureF,DewpointF,PressureIn,WindDirection,WindDirectionDegrees,WindSpeedMPH,WindSpeedGustMPH,Humidity,HourlyPrecipIn,Conditions,Clouds,dailyrainin,SoftwareType,DateUTC
2013-04-15 00:00:00,60.8,43.6,30.03,WSW,249,7.0,17.0,53,0.00,,---,0.00,VWS V14.00,2013-04-15 04:00:00,
2013-04-15 00:01:00,60.5,44.3,30.03,SW,228,8.0,10.0,55,0.00,,---,0.00,VWS V14.00,2013-04-15 04:01:00,
2013-04-15 00:07:00,60.0,44.7,30.03,SSE,157,2.0,12.0,57,0.00,,---,0.00,VWS V14.00,2013-04-15 04:07:00,
2013-04-15 00:12:00,59.2,46.2,30.04,SSE,159,1.0,12.0,62,0.00,,---,0.00,VWS V14.00,2013-04-15 04:12:00,
2013-04-15 00:17:00,58.4,45.5,30.04,SW,233,2.0,12.0,62,0.00,,---,0.00,VWS V14.00,2013-04-15 04:17:00,
2013-04-15 00:22:00,58.1,46.8,30.04,SW,234,1.0,12.0,66,0.00,,---,0.00,VWS V14.00,2013-04-15 04:22:00,
2013-04-15 00:27:00,57.7,46.8,30.04,SW,234,3.0,12.0,67,0.00,,---,0.00,VWS V14.00,2013-04-15 04:27:00,
2013-04-15 00:33:00,57.2,47.5,30.05,SW,234,3.0,3.0,70,0.00,,---,0.00,VWS V14.00,2013-04-15 04:33:00,
2013-04-15 00:38:00,56.5,46.1,30.05,SW,234,0.0,4.0,68,0.00,,---,0.00,VWS V14.00,2013-04-15 04:38:00,
2013-04-15 00:43:00,56.3,48.1,30.05,SW,232,1.0,4.0,74,0.00,,---,0.00,VWS V14.00,2013-04-15 04:43:00,
2013-04-15 00:49:00,55.6,49.2,30.05,SW,232,3.0,4.0,79,0.00,,---,0.00,VWS V14.00,2013-04-15 04:49:00,
2013-04-15 00:54:00,54.9,48.2,30.05,SW,232,0.0,4.0,78,0.00,,---,0.00,VWS V14.00,2013-04-15 04:54:00,
2013-04-15 00:59:00,54.5,48.8,30.04,SW,232,1.0,4.0,81,0.00,,---,0.00,VWS V14.00,2013-04-15 04:59:00,
2013-04-15 01:04:00,54.1,49.1,30.05,SW,231,0.0,1.0,83,0.00,,---,0.00,VWS V14.00,2013-04-15 05:04:00,
2013-04-15 01:09:00,53.7,49.0,30.04,SW,232,2.0,2.0,84,0.00,,---,0.00,VWS V14.00,2013-04-15 05:09:00,
2013-04-15 01:14:00,53.3,48.3,30.04,SW,232,0.0,3.0,83,0.00,,---,0.00,VWS V14.00,2013-04-15 05:14:00,
2013-04-15 01:19:00,53.1,49.0,30.05,SW,228,0.0,3.0,86,0.00,,---,0.00,VWS V14.00,2013-04-15 05:19:00,
2013-04-15 01:24:00,52.9,49.1,30.05,SW,228,0.0,3.0,87,0.00,,---,0.00,VWS V14.00,2013-04-15 05:24:00,
2013-04-15 01:30:00,52.7,49.2,30.05,SW,228,0.0,3.0,88,0.00,,---,0.00,VWS V14.00,2013-04-15 05:30:00,
2013-04-15 01:35:00,52.4,49.0,30.05,SW,228,0.0,1.0,88,0.00,,---,0.00,VWS V14.00,2013-04-15 05:35:00,
2013-04-15 01:40:00,52.2,49.1,30.05,SW,228,1.0,1.0,89,0.00,,---,0.00,VWS V14.00,2013-04-15 05:40:00,
2013-04-15 01:45:00,51.9,48.8,30.05,SW,228,0.0,2.0,89,0.00,,---,0.00,VWS V14.00,2013-04-15 05:45:00,
2013-04-15 01:50:00,51.8,48.7,30.05,SW,227,0.0,2.0,89,0.00,,---,0.00,VWS V14.00,2013-04-15 05:50:00,
2013-04-15 01:55:00,51.6,48.8,30.05,SW,227,0.0,2.0,90,0.00,,---,0.00,VWS V14.00,2013-04-15 05:55:00,
2013-04-15 02:01:00,51.5,48.7,30.05,SW,227,0.0,3.0,90,0.00,,---,0.00,VWS V14.00,2013-04-15 06:01:00,
2013-04-15 02:06:00,51.4,48.0,30.05,WNW,294,0.0,5.0,88,0.00,,---,0.00,VWS V14.00,2013-04-15 06:06:00,
2013-04-15 02:12:00,51.7,48.3,30.05,WNW,295,0.0,5.0,88,0.00,,---,0.00,VWS V14.00,2013-04-15 06:12:00,
2013-04-15 02:17:00,51.7,48.6,30.04,WNW,295,1.0,5.0,89,0.00,,---,0.00,VWS V14.00,2013-04-15 06:17:00,
2013-04-15 02:22:00,51.6,48.8,30.04,WNW,295,0.0,5.0,90,0.00,,---,0.00,VWS V14.00,2013-04-15 06:22:00,
2013-04-15 02:27:00,51.4,48.6,30.04,WNW,295,2.0,5.0,90,0.00,,---,0.00,VWS V14.00,2013-04-15 06:27:00,
2013-04-15 02:33:00,51.4,48.9,30.04,WNW,295,1.0,1.0,91,0.00,,---,0.00,VWS V14.00,2013-04-15 06:33:00,
2013-04-15 02:38:00,51.4,48.9,30.04,WNW,296,3.0,4.0,91,0.00,,---,0.00,VWS V14.00,2013-04-15 06:38:00,
2013-04-15 02:43:00,51.3,48.8,30.04,WNW,296,1.0,4.0,91,0.00,,---,0.00,VWS V14.00,2013-04-15 06:43:00,
2013-04-15 02:48:00,51.3,48.8,30.03,NE,49,2.0,5.0,91,0.00,,---,0.00,VWS V14.00,2013-04-15 06:48:00,
2013-04-15 02:53:00,51.3,48.8,30.03,NE,49,2.0,5.0,91,0.00,,---,0.00,VWS V14.00,2013-04-15 06:53:00,
2013-04-15 02:58:00,51.4,49.2,30.03,NE,48,3.0,5.0,92,0.00,,---,0.00,VWS V14.00,2013-04-15 06:58:00,
2013-04-15 03:03:00,51.3,49.1,30.04,NE,47,0.0,3.0,92,0.00,,---,0.00,VWS V14.00,2013-04-15 07:03:00,
2013-04-15 03:41:00,51.2,49.0,30.02,NE,49,1.0,5.0,92,0.00,,---,0.00,VWS V14.00,2013-04-15 07:41:00,
2013-04-15 03:42:00,51.2,49.0,30.02,NE,49,1.0,5.0,92,0.00,,---,0.00,VWS V14.00,2013-04-15 07:42:00,
2013-04-15 03:43:00,51.2,49.0,30.02,NE,49,0.0,5.0,92,0.00,,---,0.00,VWS V14.00,2013-04-15 07:43:00,
2013-04-15 03:48:00,51.2,49.2,30.02,NE,49,2.0,5.0,93,0.00,,---,0.00,VWS V14.00,2013-04-15 07:48:00,
2013-04-15 03:49:00,51.2,49.2,30.02,NE,40,3.0,5.0,93,0.00,,---,0.00,VWS V14.00,2013-04-15 07:49:00,
2013-04-15 03:53:00,51.2,49.0,30.02,ENE,57,2.0,7.0,92,0.00,,---,0.00,VWS V14.00,2013-04-15 07:53:00,
2013-04-15 03:59:00,51.2,49.0,30.03,ENE,59,2.0,7.0,92,0.00,,---,0.00,VWS V14.00,2013-04-15 07:59:00,
2013-04-15 04:04:00,51.2,49.0,30.03,NW,321,2.0,4.0,92,0.00,,---,0.00,VWS V14.00,2013-04-15 08:04:00,
2013-04-15 04:09:00,51.1,48.6,30.03,NE,44,0.0,4.0,91,0.00,,---,0.00,VWS V14.00,2013-04-15 08:09:00,
2013-04-15 04:14:00,51.1,48.6,30.03,NE,45,2.0,5.0,91,0.00,,---,0.00,VWS V14.00,2013-04-15 08:14:00,
2013-04-15 04:19:00,51.2,48.7,30.03,NNE,26,0.0,7.0,91,0.00,,---,0.00,VWS V14.00,2013-04-15 08:19:00,
2013-04-15 04:25:00,51.1,48.6,30.03,NE,51,3.0,7.0,91,0.00,,---,0.00,VWS V14.00,2013-04-15 08:25:00,
2013-04-15 04:30:00,51.1,48.6,30.03,NE,51,1.0,7.0,91,0.00,,---,0.00,VWS V14.00,2013-04-15 08:30:00,
2013-04-15 04:35:00,51.0,48.5,30.03,NE,51,2.0,3.0,91,0.00,,---,0.00,VWS V14.00,2013-04-15 08:35:00,
2013-04-15 04:36:00,51.0,48.5,30.03,NE,51,3.0,3.0,91,0.00,,---,0.00,VWS V14.00,2013-04-15 08:36:00,
2013-04-15 04:40:00,51.0,48.8,30.03,ENE,59,2.0,5.0,92,0.00,,---,0.00,VWS V14.00,2013-04-15 08:40:00,
2013-04-15 04:42:00,51.0,48.8,30.03,ENE,66,3.0,7.0,92,0.00,,---,0.00,VWS V14.00,2013-04-15 08:42:00,
2013-04-15 04:48:00,50.9,48.7,30.03,ENE,57,5.0,8.0,92,0.00,,---,0.00,VWS V14.00,2013-04-15 08:48:00,
2013-04-15 04:53:00,50.9,48.7,30.03,ENE,64,2.0,8.0,92,0.00,,---,0.00,VWS V14.00,2013-04-15 08:53:00,
2013-04-15 04:58:00,50.8,48.6,30.04,East,80,3.0,8.0,92,0.00,,---,0.00,VWS V14.00,2013-04-15 08:58:00,
2013-04-15 05:04:00,50.8,48.6,30.03,ENE,71,3.0,5.0,92,0.00,,---,0.00,VWS V14.00,2013-04-15 09:04:00,
2013-04-15 05:09:00,50.7,48.5,30.04,NE,52,5.0,6.0,92,0.00,,---,0.00,VWS V14.00,2013-04-15 09:09:00,
2013-04-15 05:14:00,50.7,48.5,30.04,NE,56,3.0,7.0,92,0.00,,---,0.00,VWS V14.00,2013-04-15 09:14:00,
2013-04-15 05:19:00,50.6,48.4,30.04,East,80,1.0,7.0,92,0.00,,---,0.00,VWS V14.00,2013-04-15 09:19:00,
2013-04-15 05:24:00,50.5,48.3,30.04,East,93,0.0,7.0,92,0.00,,---,0.00,VWS V14.00,2013-04-15 09:24:00,
2013-04-15 05:29:00,50.3,48.1,30.04,ESE,120,0.0,7.0,92,0.00,,---,0.00,VWS V14.00,2013-04-15 09:29:00,
2013-04-15 05:35:00,50.3,48.1,30.04,SE,135,4.0,8.0,92,0.00,,---,0.00,VWS V14.00,2013-04-15 09:35:00,
2013-04-15 05:40:00,50.2,48.0,30.04,East,81,0.0,8.0,92,0.00,,---,0.00,VWS V14.00,2013-04-15 09:40:00,
2013-04-15 05:45:00,50.1,47.9,30.04,ENE,75,2.0,8.0,92,0.00,,---,0.00,VWS V14.00,2013-04-15 09:45:00,
2013-04-15 05:50:00,50.0,47.8,30.04,ENE,62,2.0,8.0,92,0.00,,---,0.00,VWS V14.00,2013-04-15 09:50:00,
2013-04-15 05:55:00,50.0,48.1,30.03,NE,51,4.0,8.0,93,0.00,,---,0.00,VWS V14.00,2013-04-15 09:55:00,
2013-04-15 06:00:00,49.9,48.0,30.04,ENE,66,2.0,8.0,93,0.00,,---,0.00,VWS V14.00,2013-04-15 10:00:00,
2013-04-15 06:06:00,49.7,47.8,30.04,NE,45,3.0,6.0,93,0.00,,---,0.00,VWS V14.00,2013-04-15 10:06:00,
2013-04-15 06:11:00,49.6,47.4,30.04,NE,46,2.0,7.0,92,0.00,,---,0.00,VWS V14.00,2013-04-15 10:11:00,
2013-04-15 06:16:00,49.6,47.7,30.04,ENE,58,3.0,7.0,93,0.00,,---,0.00,VWS V14.00,2013-04-15 10:16:00,
2013-04-15 06:21:00,49.5,47.6,30.04,ENE,61,3.0,7.0,93,0.00,,---,0.00,VWS V14.00,2013-04-15 10:21:00,
2013-04-15 06:26:00,49.5,47.6,30.04,ESE,114,2.0,11.0,93,0.00,,---,0.00,VWS V14.00,2013-04-15 10:26:00,
2013-04-15 06:32:00,49.4,47.5,30.04,ENE,73,1.0,2.0,93,0.00,,---,0.00,VWS V14.00,2013-04-15 10:32:00,
2013-04-15 06:37:00,49.4,47.5,30.04,ENE,63,0.0,5.0,93,0.00,,---,0.00,VWS V14.00,2013-04-15 10:37:00,
2013-04-15 06:42:00,49.4,47.5,30.04,ENE,60,2.0,5.0,93,0.00,,---,0.00,VWS V14.00,2013-04-15 10:42:00,
2013-04-15 06:47:00,49.3,47.4,30.04,NE,49,2.0,5.0,93,0.00,,---,0.00,VWS V14.00,2013-04-15 10:47:00,
2013-04-15 06:52:00,49.3,47.4,30.04,NE,49,4.0,8.0,93,0.00,,---,0.00,VWS V14.00,2013-04-15 10:52:00,
2013-04-15 06:57:00,49.2,47.3,30.04,ENE,59,2.0,8.0,93,0.00,,---,0.00,VWS V14.00,2013-04-15 10:57:00,
2013-04-15 07:02:00,49.2,47.5,30.05,ENE,57,1.0,2.0,94,0.00,,---,0.00,VWS V14.00,2013-04-15 11:02:00,
2013-04-15 07:08:00,49.2,47.5,30.05,NE,48,0.0,5.0,94,0.00,,---,0.00,VWS V14.00,2013-04-15 11:08:00,
2013-04-15 07:13:00,49.2,47.5,30.05,NE,49,0.0,5.0,94,0.00,,---,0.00,VWS V14.00,2013-04-15 11:13:00,
2013-04-15 07:19:00,49.3,47.7,30.05,ENE,70,4.0,6.0,94,0.00,,---,0.00,VWS V14.00,2013-04-15 11:19:00,
2013-04-15 07:24:00,49.3,47.7,30.05,ENE,59,2.0,6.0,94,0.03,,---,0.03,VWS V14.00,2013-04-15 11:24:00,
2013-04-15 07:29:00,49.2,47.5,30.05,ENE,59,0.0,6.0,94,0.03,,---,0.03,VWS V14.00,2013-04-15 11:29:00,
2013-04-15 07:35:00,49.3,47.7,30.06,ENE,59,1.0,4.0,94,0.04,,---,0.04,VWS V14.00,2013-04-15 11:35:00,
2013-04-15 07:40:00,49.2,47.5,30.06,ENE,59,0.0,4.0,94,0.04,,---,0.04,VWS V14.00,2013-04-15 11:40:00,
2013-04-15 07:45:00,49.3,47.9,30.06,ENE,59,1.0,4.0,95,0.05,,---,0.05,VWS V14.00,2013-04-15 11:45:00,
2013-04-15 07:50:00,49.3,47.9,30.06,NE,47,1.0,4.0,95,0.05,,---,0.05,VWS V14.00,2013-04-15 11:50:00,
2013-04-15 07:55:00,49.3,47.9,30.07,NE,48,0.0,4.0,95,0.06,,---,0.06,VWS V14.00,2013-04-15 11:55:00,
2013-04-15 08:00:00,49.3,47.9,30.07,NE,48,2.0,4.0,95,0.08,,---,0.08,VWS V14.00,2013-04-15 12:00:00,
2013-04-15 08:05:00,49.3,47.9,30.07,NE,48,0.0,3.0,95,0.10,,---,0.10,VWS V14.00,2013-04-15 12:05:00,
2013-04-15 08:11:00,49.4,48.0,30.07,NE,48,1.0,3.0,95,0.11,,---,0.11,VWS V14.00,2013-04-15 12:11:00,
2013-04-15 08:16:00,49.5,48.1,30.07,NE,56,0.0,3.0,95,0.12,,---,0.12,VWS V14.00,2013-04-15 12:16:00,
2013-04-15 08:22:00,49.6,48.5,30.07,ENE,57,1.0,4.0,96,0.12,,---,0.12,VWS V14.00,2013-04-15 12:22:00,
2013-04-15 08:27:00,49.6,48.2,30.07,NE,54,2.0,5.0,95,0.13,,---,0.13,VWS V14.00,2013-04-15 12:27:00,
2013-04-15 08:33:00,49.7,48.3,30.07,ENE,63,2.0,3.0,95,0.10,,---,0.13,VWS V14.00,2013-04-15 12:33:00,
2013-04-15 08:38:00,49.8,48.4,30.07,ENE,67,1.0,4.0,95,0.11,,---,0.14,VWS V14.00,2013-04-15 12:38:00,
2013-04-15 08:43:00,49.8,48.4,30.07,ENE,67,2.0,4.0,95,0.11,,---,0.14,VWS V14.00,2013-04-15 12:43:00,
2013-04-15 08:49:00,49.9,48.5,30.07,ENE,59,1.0,7.0,95,0.11,,---,0.14,VWS V14.00,2013-04-15 12:49:00,
2013-04-15 08:55:00,50.0,48.6,30.08,ENE,59,0.0,7.0,95,0.12,,---,0.15,VWS V14.00,2013-04-15 12:55:00,
2013-04-15 09:00:00,50.0,48.6,30.08,ENE,59,4.0,7.0,95,0.12,,---,0.15,VWS V14.00,2013-04-15 13:00:00,
2013-04-15 09:05:00,50.1,48.7,30.08,ENE,61,3.0,4.0,95,0.08,,---,0.16,VWS V14.00,2013-04-15 13:05:00,
2013-04-15 09:11:00,50.1,48.7,30.08,ENE,61,4.0,4.0,95,0.08,,---,0.16,VWS V14.00,2013-04-15 13:11:00,
2013-04-15 09:16:00,50.1,48.7,30.08,NE,41,3.0,6.0,95,0.09,,---,0.17,VWS V14.00,2013-04-15 13:16:00,
2013-04-15 09:22:00,50.2,48.8,30.08,ENE,70,0.0,6.0,95,0.09,,---,0.17,VWS V14.00,2013-04-15 13:22:00,
2013-04-15 09:27:00,50.2,48.5,30.08,ENE,78,2.0,8.0,94,0.10,,---,0.18,VWS V14.00,2013-04-15 13:27:00,
2013-04-15 09:33:00,50.3,48.6,30.08,NE,53,3.0,5.0,94,0.05,,---,0.18,VWS V14.00,2013-04-15 13:33:00,
2013-04-15 09:38:00,50.4,48.7,30.08,NNW,339,3.0,12.0,94,0.05,,---,0.18,VWS V14.00,2013-04-15 13:38:00,
2013-04-15 09:43:00,50.5,48.8,30.08,NE,49,11.0,12.0,94,0.05,,---,0.18,VWS V14.00,2013-04-15 13:43:00,
2013-04-15 09:49:00,50.5,48.6,30.08,ENE,60,2.0,13.0,93,0.05,,---,0.18,VWS V14.00,2013-04-15 13:49:00,
2013-04-15 09:54:00,50.6,48.7,30.08,NE,51,5.0,13.0,93,0.06,,---,0.19,VWS V14.00,2013-04-15 13:54:00,
2013-04-15 09:59:00,50.6,48.7,30.09,ENE,72,0.0,13.0,93,0.06,,---,0.19,VWS V14.00,2013-04-15 13:59:00,
2013-04-15 10:04:00,50.7,48.8,30.09,ENE,59,1.0,6.0,93,0.04,,---,0.19,VWS V14.00,2013-04-15 14:04:00,
2013-04-15 10:10:00,50.8,48.8,30.09,NE,47,1.0,6.0,93,0.04,,---,0.19,VWS V14.00,2013-04-15 14:10:00,
2013-04-15 10:15:00,50.7,48.8,30.09,NE,53,4.0,9.0,93,0.05,,---,0.20,VWS V14.00,2013-04-15 14:15:00,
2013-04-15 10:20:00,50.7,48.8,30.09,NE,50,4.0,9.0,93,0.05,,---,0.20,VWS V14.00,2013-04-15 14:20:00,
2013-04-15 10:25:00,50.7,48.8,30.09,NE,41,0.0,9.0,93,0.05,,---,0.20,VWS V14.00,2013-04-15 14:25:00,
2013-04-15 10:31:00,50.8,48.8,30.09,ENE,60,2.0,9.0,93,0.05,,---,0.20,VWS V14.00,2013-04-15 14:31:00,
2013-04-15 10:36:00,50.9,49.2,30.09,ENE,60,2.0,4.0,94,0.02,,---,0.20,VWS V14.00,2013-04-15 14:36:00,
2013-04-15 10:42:00,50.9,49.2,30.09,ENE,61,2.0,5.0,94,0.02,,---,0.20,VWS V14.00,2013-04-15 14:42:00,
2013-04-15 10:48:00,50.9,49.2,30.09,ENE,60,3.0,7.0,94,0.02,,---,0.20,VWS V14.00,2013-04-15 14:48:00,
2013-04-15 10:53:00,51.0,49.3,30.09,ENE,64,2.0,7.0,94,0.02,,---,0.20,VWS V14.00,2013-04-15 14:53:00,
2013-04-15 10:58:00,51.0,49.3,30.09,ENE,64,4.0,7.0,94,0.02,,---,0.20,VWS V14.00,2013-04-15 14:58:00,
2013-04-15 11:03:00,51.0,49.3,30.09,ENE,61,3.0,6.0,94,0.02,,---,0.21,VWS V14.00,2013-04-15 15:03:00,
2013-04-15 11:09:00,51.0,49.0,30.09,NE,55,8.0,8.0,93,0.02,,---,0.21,VWS V14.00,2013-04-15 15:09:00,
2013-04-15 11:14:00,51.0,49.0,30.10,NE,36,0.0,10.0,93,0.02,,---,0.21,VWS V14.00,2013-04-15 15:14:00,
2013-04-15 11:20:00,51.1,49.2,30.10,SE,128,2.0,10.0,93,0.02,,---,0.21,VWS V14.00,2013-04-15 15:20:00,
2013-04-15 11:26:00,51.1,49.2,30.11,NE,38,1.0,10.0,93,0.02,,---,0.21,VWS V14.00,2013-04-15 15:26:00,
2013-04-15 11:31:00,51.1,49.2,30.11,NE,49,1.0,10.0,93,0.02,,---,0.21,VWS V14.00,2013-04-15 15:31:00,
2013-04-15 11:36:00,51.2,49.2,30.11,NE,44,2.0,5.0,93,0.01,,---,0.21,VWS V14.00,2013-04-15 15:36:00,
2013-04-15 11:41:00,51.2,49.2,30.11,NE,48,4.0,5.0,93,0.01,,---,0.21,VWS V14.00,2013-04-15 15:41:00,
2013-04-15 11:47:00,51.2,49.2,30.11,NE,42,2.0,5.0,93,0.01,,---,0.21,VWS V14.00,2013-04-15 15:47:00,
2013-04-15 11:52:00,51.3,49.3,30.11,ENE,64,0.0,10.0,93,0.01,,---,0.21,VWS V14.00,2013-04-15 15:52:00,
2013-04-15 11:57:00,51.4,49.5,30.11,ENE,64,0.0,10.0,93,0.01,,---,0.21,VWS V14.00,2013-04-15 15:57:00,
2013-04-15 12:03:00,51.6,49.9,30.11,ENE,66,1.0,2.0,94,0.01,,---,0.21,VWS V14.00,2013-04-15 16:03:00,
2013-04-15 12:08:00,51.8,49.8,30.11,ENE,66,0.0,3.0,93,0.01,,---,0.21,VWS V14.00,2013-04-15 16:08:00,
2013-04-15 12:13:00,51.8,49.8,30.11,East,95,4.0,5.0,93,0.01,,---,0.21,VWS V14.00,2013-04-15 16:13:00,
2013-04-15 12:19:00,51.8,49.5,30.12,East,94,0.0,5.0,92,0.01,,---,0.21,VWS V14.00,2013-04-15 16:19:00,
2013-04-15 12:24:00,51.8,49.8,30.12,NE,53,4.0,5.0,93,0.01,,---,0.21,VWS V14.00,2013-04-15 16:24:00,
2013-04-15 12:29:00,51.8,49.8,30.12,NE,51,0.0,5.0,93,0.01,,---,0.21,VWS V14.00,2013-04-15 16:29:00,
2013-04-15 12:34:00,51.8,49.8,30.12,NE,53,2.0,4.0,93,0.01,,---,0.22,VWS V14.00,2013-04-15 16:34:00,
2013-04-15 12:40:00,51.8,49.8,30.12,NE,55,0.0,4.0,93,0.01,,---,0.22,VWS V14.00,2013-04-15 16:40:00,
2013-04-15 12:45:00,51.8,49.8,30.12,NNE,25,1.0,5.0,93,0.01,,---,0.22,VWS V14.00,2013-04-15 16:45:00,
2013-04-15 12:50:00,52.0,50.0,30.13,NE,48,0.0,5.0,93,0.01,,---,0.22,VWS V14.00,2013-04-15 16:50:00,
2013-04-15 12:56:00,52.1,50.1,30.13,NE,46,0.0,5.0,93,0.01,,---,0.22,VWS V14.00,2013-04-15 16:56:00,
2013-04-15 13:02:00,52.1,50.1,30.13,NE,46,0.0,3.0,93,0.01,,---,0.22,VWS V14.00,2013-04-15 17:02:00,
2013-04-15 13:07:00,52.2,50.2,30.13,NE,51,2.0,5.0,93,0.01,,---,0.22,VWS V14.00,2013-04-15 17:07:00,
2013-04-15 13:13:00,52.4,50.4,30.13,NE,51,2.0,5.0,93,0.01,,---,0.22,VWS V14.00,2013-04-15 17:13:00,
2013-04-15 13:19:00,52.3,50.0,30.13,NE,51,0.0,5.0,92,0.01,,---,0.22,VWS V14.00,2013-04-15 17:19:00,
2013-04-15 13:21:00,52.3,50.0,30.13,NE,55,1.0,5.0,92,0.01,,---,0.22,VWS V14.00,2013-04-15 17:21:00,
2013-04-15 13:22:00,52.3,50.0,30.13,NE,55,2.0,5.0,92,0.01,,---,0.22,VWS V14.00,2013-04-15 17:22:00,
2013-04-15 13:23:00,52.3,50.0,30.13,NE,56,3.0,5.0,92,0.01,,---,0.22,VWS V14.00,2013-04-15 17:23:00,
2013-04-15 13:27:00,52.3,50.0,30.13,NE,56,2.0,5.0,92,0.01,,---,0.22,VWS V14.00,2013-04-15 17:27:00,
2013-04-15 13:33:00,52.5,50.5,30.13,NE,56,2.0,3.0,93,0.00,,---,0.22,VWS V14.00,2013-04-15 17:33:00,
2013-04-15 13:38:00,52.5,50.2,30.13,NE,55,0.0,3.0,92,0.00,,---,0.22,VWS V14.00,2013-04-15 17:38:00,
2013-04-15 13:43:00,52.5,50.2,30.13,ENE,61,6.0,6.0,92,0.00,,---,0.22,VWS V14.00,2013-04-15 17:43:00,
2013-04-15 13:48:00,52.5,50.0,30.13,East,100,0.0,6.0,91,0.00,,---,0.22,VWS V14.00,2013-04-15 17:48:00,
2013-04-15 13:54:00,52.6,50.3,30.13,East,100,0.0,6.0,92,0.00,,---,0.22,VWS V14.00,2013-04-15 17:54:00,
2013-04-15 13:59:00,52.6,50.0,30.13,East,81,1.0,6.0,91,0.00,,---,0.22,VWS V14.00,2013-04-15 17:59:00,
2013-04-15 14:04:00,52.8,50.5,30.13,East,84,1.0,6.0,92,0.00,,---,0.22,VWS V14.00,2013-04-15 18:04:00,
2013-04-15 14:09:00,53.1,50.8,30.12,East,84,1.0,6.0,92,0.00,,---,0.22,VWS V14.00,2013-04-15 18:09:00,
2013-04-15 14:14:00,53.2,50.7,30.12,East,81,2.0,6.0,91,0.00,,---,0.22,VWS V14.00,2013-04-15 18:14:00,
2013-04-15 14:20:00,53.5,50.6,30.13,NE,53,2.0,7.0,90,0.00,,---,0.22,VWS V14.00,2013-04-15 18:20:00,
2013-04-15 14:25:00,54.1,51.5,30.12,ENE,68,2.0,7.0,91,0.00,,---,0.22,VWS V14.00,2013-04-15 18:25:00,
2013-04-15 14:29:00,54.3,51.1,30.13,NE,49,3.0,7.0,89,0.00,,---,0.22,VWS V14.00,2013-04-15 18:29:00,
2013-04-15 14:30:00,54.4,51.5,30.13,NE,51,3.0,7.0,90,0.00,,---,0.22,VWS V14.00,2013-04-15 18:30:00,
2013-04-15 14:31:00,54.5,51.3,30.13,NE,50,2.0,7.0,89,0.00,,---,0.22,VWS V14.00,2013-04-15 18:31:00,
2013-04-15 14:35:00,54.8,51.6,30.13,NE,52,2.0,4.0,89,0.00,,---,0.22,VWS V14.00,2013-04-15 18:35:00,
2013-04-15 14:40:00,55.1,51.6,30.13,East,101,0.0,7.0,88,0.00,,---,0.22,VWS V14.00,2013-04-15 18:40:00,
2013-04-15 14:45:00,55.1,51.3,30.13,ENE,64,5.0,7.0,87,0.00,,---,0.22,VWS V14.00,2013-04-15 18:45:00,
2013-04-15 14:50:00,54.9,50.8,30.13,NE,51,1.0,7.0,86,0.00,,---,0.22,VWS V14.00,2013-04-15 18:50:00,
2013-04-15 14:55:00,55.0,51.2,30.12,NE,52,0.0,7.0,87,0.00,,---,0.22,VWS V14.00,2013-04-15 18:55:00,
2013-04-15 15:00:00,55.2,51.1,30.12,NE,52,0.0,7.0,86,0.00,,---,0.22,VWS V14.00,2013-04-15 19:00:00,
2013-04-15 15:05:00,55.3,51.2,30.12,ENE,62,4.0,5.0,86,0.00,,---,0.22,VWS V14.00,2013-04-15 19:05:00,
2013-04-15 15:10:00,55.5,51.7,30.12,NNE,32,0.0,5.0,87,0.00,,---,0.22,VWS V14.00,2013-04-15 19:10:00,
2013-04-15 15:15:00,55.6,51.5,30.12,ENE,63,4.0,5.0,86,0.00,,---,0.22,VWS V14.00,2013-04-15 19:15:00,
2013-04-15 15:20:00,55.6,51.2,30.12,ENE,60,3.0,6.0,85,0.00,,---,0.22,VWS V14.00,2013-04-15 19:20:00,
2013-04-15 15:25:00,55.8,51.7,30.12,ENE,73,3.0,6.0,86,0.00,,---,0.22,VWS V14.00,2013-04-15 19:25:00,
2013-04-15 15:31:00,55.8,51.7,30.12,NE,41,2.0,7.0,86,0.00,,---,0.22,VWS V14.00,2013-04-15 19:31:00,
2013-04-15 15:36:00,55.7,51.3,30.12,SE,144,0.0,7.0,85,0.00,,---,0.22,VWS V14.00,2013-04-15 19:36:00,
2013-04-15 15:41:00,55.9,51.5,30.12,NE,47,2.0,7.0,85,0.00,,---,0.22,VWS V14.00,2013-04-15 19:41:00,
2013-04-15 15:47:00,56.0,51.6,30.12,NE,48,2.0,7.0,85,0.00,,---,0.22,VWS V14.00,2013-04-15 19:47:00,
2013-04-15 15:52:00,56.0,51.2,30.12,East,83,2.0,7.0,84,0.00,,---,0.22,VWS V14.00,2013-04-15 19:52:00,
2013-04-15 15:57:00,55.9,51.1,30.11,NE,49,3.0,7.0,84,0.00,,---,0.22,VWS V14.00,2013-04-15 19:57:00,
2013-04-15 15:58:00,55.9,51.1,30.11,NE,49,3.0,7.0,84,0.00,,---,0.22,VWS V14.00,2013-04-15 19:58:00,
2013-04-15 15:59:00,55.8,51.0,30.12,NE,49,1.0,7.0,84,0.00,,---,0.22,VWS V14.00,2013-04-15 19:59:00,
2013-04-15 16:01:00,55.8,51.0,30.11,NE,49,1.0,7.0,84,0.00,,---,0.22,VWS V14.00,2013-04-15 20:01:00,
2013-04-15 16:02:00,55.8,51.0,30.11,NE,49,2.0,3.0,84,0.00,,---,0.22,VWS V14.00,2013-04-15 20:02:00,
2013-04-15 16:03:00,55.8,51.0,30.11,NE,37,5.0,5.0,84,0.00,,---,0.22,VWS V14.00,2013-04-15 20:03:00,
2013-04-15 16:04:00,55.8,51.0,30.12,NE,37,0.0,5.0,84,0.00,,---,0.22,VWS V14.00,2013-04-15 20:04:00,
2013-04-15 16:09:00,55.7,51.3,30.12,NE,46,1.0,5.0,85,0.00,,---,0.22,VWS V14.00,2013-04-15 20:09:00,
2013-04-15 16:14:00,55.8,51.7,30.12,NE,49,1.0,5.0,86,0.00,,---,0.22,VWS V14.00,2013-04-15 20:14:00,
2013-04-15 16:19:00,55.7,51.3,30.12,NE,53,2.0,5.0,85,0.00,,---,0.22,VWS V14.00,2013-04-15 20:19:00,
2013-04-15 16:24:00,55.7,51.3,30.12,NE,54,0.0,5.0,85,0.00,,---,0.22,VWS V14.00,2013-04-15 20:24:00,
2013-04-15 16:30:00,55.8,51.4,30.12,ENE,57,1.0,5.0,85,0.00,,---,0.22,VWS V14.00,2013-04-15 20:30:00,
2013-04-15 16:35:00,55.8,51.4,30.12,NE,56,1.0,4.0,85,0.00,,---,0.22,VWS V14.00,2013-04-15 20:35:00,
2013-04-15 16:40:00,55.7,51.3,30.12,ENE,59,1.0,5.0,85,0.00,,---,0.22,VWS V14.00,2013-04-15 20:40:00,
2013-04-15 16:45:00,55.5,51.1,30.12,ENE,57,0.0,5.0,85,0.00,,---,0.22,VWS V14.00,2013-04-15 20:45:00,
2013-04-15 16:50:00,55.5,51.1,30.12,ENE,58,3.0,5.0,85,0.00,,---,0.22,VWS V14.00,2013-04-15 20:50:00,
2013-04-15 16:55:00,55.4,51.0,30.12,ENE,58,1.0,5.0,85,0.00,,---,0.22,VWS V14.00,2013-04-15 20:55:00,
2013-04-15 17:00:00,55.5,51.4,30.12,ENE,58,1.0,5.0,86,0.00,,---,0.22,VWS V14.00,2013-04-15 21:00:00,
2013-04-15 17:06:00,55.4,51.3,30.12,ENE,58,2.0,3.0,86,0.00,,---,0.22,VWS V14.00,2013-04-15 21:06:00,
2013-04-15 17:11:00,55.3,51.2,30.13,ENE,58,0.0,3.0,86,0.00,,---,0.22,VWS V14.00,2013-04-15 21:11:00,
2013-04-15 17:16:00,55.3,51.5,30.12,ENE,58,1.0,4.0,87,0.00,,---,0.22,VWS V14.00,2013-04-15 21:16:00,
2013-04-15 17:21:00,55.4,51.6,30.12,ENE,59,2.0,4.0,87,0.00,,---,0.22,VWS V14.00,2013-04-15 21:21:00,
2013-04-15 17:26:00,55.3,51.5,30.12,ENE,59,1.0,4.0,87,0.00,,---,0.22,VWS V14.00,2013-04-15 21:26:00,
2013-04-15 17:32:00,55.3,51.5,30.13,NE,55,1.0,1.0,87,0.00,,---,0.22,VWS V14.00,2013-04-15 21:32:00,
2013-04-15 17:37:00,55.1,51.3,30.13,NE,51,2.0,7.0,87,0.00,,---,0.22,VWS V14.00,2013-04-15 21:37:00,
2013-04-15 17:42:00,55.2,51.7,30.13,NE,51,0.0,7.0,88,0.00,,---,0.22,VWS V14.00,2013-04-15 21:42:00,
2013-04-15 17:47:00,55.1,51.6,30.13,ENE,59,0.0,7.0,88,0.00,,---,0.22,VWS V14.00,2013-04-15 21:47:00,
2013-04-15 17:52:00,55.1,51.6,30.13,ENE,59,0.0,7.0,88,0.00,,---,0.22,VWS V14.00,2013-04-15 21:52:00,
2013-04-15 17:57:00,55.1,51.6,30.13,ENE,60,1.0,7.0,88,0.00,,---,0.22,VWS V14.00,2013-04-15 21:57:00,
2013-04-15 18:02:00,55.0,51.5,30.14,ENE,60,0.0,2.0,88,0.00,,---,0.22,VWS V14.00,2013-04-15 22:02:00,
2013-04-15 18:07:00,55.0,51.5,30.14,ENE,60,0.0,2.0,88,0.00,,---,0.22,VWS V14.00,2013-04-15 22:07:00,
2013-04-15 18:13:00,55.0,51.5,30.14,ENE,60,1.0,2.0,88,0.00,,---,0.22,VWS V14.00,2013-04-15 22:13:00,
2013-04-15 18:18:00,55.0,51.5,30.14,ENE,60,0.0,2.0,88,0.00,,---,0.22,VWS V14.00,2013-04-15 22:18:00,
2013-04-15 18:23:00,55.0,51.5,30.14,ENE,60,1.0,4.0,88,0.00,,---,0.22,VWS V14.00,2013-04-15 22:23:00,
2013-04-15 18:28:00,55.0,51.8,30.14,ENE,60,1.0,4.0,89,0.00,,---,0.22,VWS V14.00,2013-04-15 22:28:00,
2013-04-15 18:33:00,55.0,51.5,30.14,ENE,60,0.0,1.0,88,0.00,,---,0.22,VWS V14.00,2013-04-15 22:33:00,
2013-04-15 18:38:00,55.0,51.8,30.14,ENE,60,3.0,3.0,89,0.00,,---,0.22,VWS V14.00,2013-04-15 22:38:00,
2013-04-15 18:43:00,54.9,51.7,30.15,ENE,59,1.0,3.0,89,0.00,,---,0.22,VWS V14.00,2013-04-15 22:43:00,
2013-04-15 18:48:00,54.9,51.7,30.15,ENE,59,0.0,3.0,89,0.00,,---,0.22,VWS V14.00,2013-04-15 22:48:00,
2013-04-15 18:53:00,54.9,51.7,30.15,ENE,60,0.0,3.0,89,0.00,,---,0.22,VWS V14.00,2013-04-15 22:53:00,
2013-04-15 18:59:00,54.8,51.6,30.15,ENE,59,1.0,3.0,89,0.00,,---,0.22,VWS V14.00,2013-04-15 22:59:00,
2013-04-15 19:04:00,54.8,51.9,30.15,ENE,60,0.0,1.0,90,0.00,,---,0.22,VWS V14.00,2013-04-15 23:04:00,
2013-04-15 19:09:00,54.8,51.6,30.15,ENE,59,0.0,2.0,89,0.00,,---,0.22,VWS V14.00,2013-04-15 23:09:00,
2013-04-15 19:14:00,54.8,51.6,30.15,ENE,60,0.0,2.0,89,0.00,,---,0.22,VWS V14.00,2013-04-15 23:14:00,
2013-04-15 19:19:00,54.7,51.5,30.15,ENE,60,0.0,3.0,89,0.00,,---,0.22,VWS V14.00,2013-04-15 23:19:00,
2013-04-15 19:24:00,54.7,51.5,30.15,ENE,60,0.0,4.0,89,0.00,,---,0.22,VWS V14.00,2013-04-15 23:24:00,
2013-04-15 19:29:00,54.7,51.5,30.15,ENE,59,0.0,4.0,89,0.00,,---,0.22,VWS V14.00,2013-04-15 23:29:00,
2013-04-15 19:34:00,54.7,52.4,30.15,ENE,60,0.0,3.0,92,0.00,,---,0.22,VWS V14.00,2013-04-15 23:34:00,
2013-04-15 19:39:00,54.7,51.5,30.16,ENE,61,0.0,3.0,89,0.00,,---,0.22,VWS V14.00,2013-04-15 23:39:00,
2013-04-15 19:44:00,54.7,51.5,30.16,ENE,61,1.0,3.0,89,0.00,,---,0.22,VWS V14.00,2013-04-15 23:44:00,
2013-04-15 19:50:00,54.7,51.5,30.16,ENE,60,0.0,4.0,89,0.00,,---,0.22,VWS V14.00,2013-04-15 23:50:00,
2013-04-15 19:55:00,54.7,51.5,30.16,ENE,60,0.0,4.0,89,0.00,,---,0.22,VWS V14.00,2013-04-15 23:55:00,
2013-04-15 20:00:00,54.7,51.5,30.16,ENE,60,0.0,4.0,89,0.00,,---,0.22,VWS V14.00,2013-04-16 00:00:00,
2013-04-15 20:05:00,54.6,51.7,30.17,ENE,61,0.0,3.0,90,0.00,,---,0.22,VWS V14.00,2013-04-16 00:05:00,
2013-04-15 20:10:00,54.6,51.7,30.17,ENE,61,0.0,3.0,90,0.00,,---,0.22,VWS V14.00,2013-04-16 00:10:00,
2013-04-15 20:15:00,54.5,51.9,30.17,ENE,61,1.0,3.0,91,0.00,,---,0.22,VWS V14.00,2013-04-16 00:15:00,
2013-04-15 20:20:00,54.4,51.8,30.17,ENE,60,0.0,3.0,91,0.00,,---,0.22,VWS V14.00,2013-04-16 00:20:00,
2013-04-15 20:25:00,54.3,51.7,30.17,ENE,61,0.0,3.0,91,0.00,,---,0.22,VWS V14.00,2013-04-16 00:25:00,
2013-04-15 20:31:00,54.2,51.9,30.17,ENE,61,0.0,3.0,92,0.00,,---,0.22,VWS V14.00,2013-04-16 00:31:00,
2013-04-15 20:36:00,54.1,51.8,30.17,ENE,61,0.0,2.0,92,0.01,,---,0.23,VWS V14.00,2013-04-16 00:36:00,
2013-04-15 20:41:00,54.0,51.7,30.17,ENE,60,3.0,4.0,92,0.01,,---,0.23,VWS V14.00,2013-04-16 00:41:00,
2013-04-15 20:47:00,53.9,51.9,30.18,ENE,60,2.0,4.0,93,0.01,,---,0.23,VWS V14.00,2013-04-16 00:47:00,
2013-04-15 20:52:00,53.8,51.8,30.18,ENE,60,0.0,4.0,93,0.01,,---,0.23,VWS V14.00,2013-04-16 00:52:00,
2013-04-15 20:57:00,53.8,51.8,30.18,ENE,60,0.0,4.0,93,0.01,,---,0.23,VWS V14.00,2013-04-16 00:57:00,
2013-04-15 21:02:00,53.7,51.7,30.18,ENE,60,0.0,0.0,93,0.01,,---,0.23,VWS V14.00,2013-04-16 01:02:00,
2013-04-15 21:07:00,53.8,51.8,30.18,ENE,61,2.0,3.0,93,0.01,,---,0.23,VWS V14.00,2013-04-16 01:07:00,
2013-04-15 21:12:00,53.9,51.9,30.19,ENE,61,0.0,3.0,93,0.01,,---,0.23,VWS V14.00,2013-04-16 01:12:00,
2013-04-15 21:17:00,53.9,51.9,30.19,ENE,61,0.0,3.0,93,0.01,,---,0.23,VWS V14.00,2013-04-16 01:17:00,
2013-04-15 21:23:00,54.0,52.0,30.19,ENE,61,0.0,3.0,93,0.01,,---,0.23,VWS V14.00,2013-04-16 01:23:00,
2013-04-15 21:28:00,54.1,51.8,30.19,ENE,61,0.0,3.0,92,0.01,,---,0.23,VWS V14.00,2013-04-16 01:28:00,
2013-04-15 21:33:00,54.1,51.8,30.19,ENE,58,0.0,1.0,92,0.01,,---,0.23,VWS V14.00,2013-04-16 01:33:00,
2013-04-15 21:38:00,54.3,52.0,30.20,ENE,58,0.0,1.0,92,0.01,,---,0.23,VWS V14.00,2013-04-16 01:38:00,
2013-04-15 21:43:00,54.3,52.0,30.20,ENE,58,0.0,3.0,92,0.01,,---,0.23,VWS V14.00,2013-04-16 01:43:00,
2013-04-15 21:48:00,54.3,52.0,30.20,ENE,58,2.0,3.0,92,0.01,,---,0.23,VWS V14.00,2013-04-16 01:48:00,
2013-04-15 21:53:00,54.4,52.1,30.20,NE,49,3.0,4.0,92,0.01,,---,0.23,VWS V14.00,2013-04-16 01:53:00,
2013-04-15 21:58:00,54.5,51.9,30.20,NE,50,0.0,6.0,91,0.01,,---,0.23,VWS V14.00,2013-04-16 01:58:00,
2013-04-15 22:03:00,54.5,51.9,30.20,NE,50,0.0,1.0,91,0.00,,---,0.23,VWS V14.00,2013-04-16 02:03:00,
2013-04-15 22:09:00,54.6,52.0,30.20,NE,50,0.0,2.0,91,0.00,,---,0.23,VWS V14.00,2013-04-16 02:09:00,
2013-04-15 22:14:00,54.6,52.0,30.20,NE,52,1.0,2.0,91,0.00,,---,0.23,VWS V14.00,2013-04-16 02:14:00,
2013-04-15 22:19:00,54.6,52.0,30.21,NE,52,1.0,3.0,91,0.00,,---,0.23,VWS V14.00,2013-04-16 02:19:00,
2013-04-15 22:24:00,54.6,52.0,30.21,ENE,72,1.0,5.0,91,0.00,,---,0.23,VWS V14.00,2013-04-16 02:24:00,
2013-04-15 22:29:00,54.6,52.0,30.21,ENE,72,0.0,5.0,91,0.00,,---,0.23,VWS V14.00,2013-04-16 02:29:00,
2013-04-15 22:34:00,54.7,52.1,30.21,ENE,62,0.0,3.0,91,0.00,,---,0.23,VWS V14.00,2013-04-16 02:34:00,
2013-04-15 22:39:00,54.7,52.1,30.22,ENE,62,1.0,3.0,91,0.00,,---,0.23,VWS V14.00,2013-04-16 02:39:00,
2013-04-15 22:44:00,54.7,52.4,30.22,ENE,62,1.0,3.0,92,0.00,,---,0.23,VWS V14.00,2013-04-16 02:44:00,
2013-04-15 22:49:00,54.7,52.1,30.22,ENE,62,0.0,3.0,91,0.00,,---,0.23,VWS V14.00,2013-04-16 02:49:00,
2013-04-15 22:55:00,54.7,52.1,30.22,ENE,62,1.0,3.0,91,0.00,,---,0.23,VWS V14.00,2013-04-16 02:55:00,
2013-04-15 23:00:00,54.7,52.1,30.22,ENE,62,0.0,3.0,91,0.00,,---,0.23,VWS V14.00,2013-04-16 03:00:00,
2013-04-15 23:05:00,54.7,52.4,30.22,ENE,62,1.0,2.0,92,0.00,,---,0.23,VWS V14.00,2013-04-16 03:05:00,
2013-04-15 23:10:00,54.8,52.2,30.22,ENE,61,0.0,4.0,91,0.00,,---,0.23,VWS V14.00,2013-04-16 03:10:00,
2013-04-15 23:15:00,54.8,52.2,30.22,ENE,61,0.0,4.0,91,0.00,,---,0.23,VWS V14.00,2013-04-16 03:15:00,
2013-04-15 23:20:00,54.8,52.2,30.22,ENE,58,1.0,5.0,91,0.00,,---,0.23,VWS V14.00,2013-04-16 03:20:00,
2013-04-15 23:25:00,54.8,52.5,30.22,ENE,58,0.0,5.0,92,0.00,,---,0.23,VWS V14.00,2013-04-16 03:25:00,
2013-04-15 23:30:00,54.8,52.2,30.22,ENE,58,2.0,5.0,91,0.00,,---,0.23,VWS V14.00,2013-04-16 03:30:00,
2013-04-15 23:35:00,54.8,52.2,30.22,ENE,59,1.0,2.0,91,0.00,,---,0.23,VWS V14.00,2013-04-16 03:35:00,
2013-04-15 23:40:00,54.8,52.2,30.22,ENE,59,0.0,3.0,91,0.00,,---,0.23,VWS V14.00,2013-04-16 03:40:00,
2013-04-15 23:45:00,54.8,52.5,30.22,ENE,59,0.0,3.0,92,0.00,,---,0.23,VWS V14.00,2013-04-16 03:45:00,
2013-04-15 23:50:00,54.8,52.5,30.22,NE,40,1.0,5.0,92,0.00,,---,0.23,VWS V14.00,2013-04-16 03:50:00,
2013-04-15 23:55:00,54.7,52.4,30.22,NE,40,0.0,5.0,92,0.00,,---,0.23,VWS V14.00,2013-04-16 03:55:00,